Starlink 3677

operational
NORAD ID: 51970 Int'l Des: 2022-025 Owner: SPXS Country: US Constellation: starlink
LEOCIRCULARSTARLINK_TYPE

关于 Starlink 3677

正在加载描述...

实时位置

正在加载3D地球...

即将过境

高度历史

Altitude vs Time

uPlot chart will show altitude changes over time

两行轨道根数

1 51970U 22025Q 25259.27190464 .00000328 00000-0 40876-4 0 9991
2 51970 53.0544 93.8959 0001205 93.9448 266.1678 15.06399625194638
Epoch: Sep 16, 2025 • Age: 8 hours

当前状态

高度 553.5 km
速度 7.58 km/s
星下点 -21.09°S, 135.67°W
发射日期 Mar 9, 2022
运行时间 3.5 years
类型 internet

技术详情

分类 Payload
质量 297.00 kg
干质量 275.00 kg
总质量 297.00 kg
长度 0.20 m
直径 2.80 m
跨度 9.00 m
形状 Box + pan
制造商 SPXS
平台类型 Starlink
阶段状态 In Orbit
所有者/国家 SPXS/US

大型星座

Loading constellations...